Torna al catalogo

STARLINK-5430

AttivoComunicazioniVLEO
NORAD 54803·PAYLOAD·🇺🇸 United States

Lanciato Dec 17, 2022 da Cape Canaveral Space Force Station

Loading…

Prossimi Passaggi (prossime 24 ore)

TLE

AggiornatoSource: CelesTrak SupGP

Epoca: Sep 15, 2026, 02:16 UTC

1 54803C 22175AX  26258.09493056 -.00030203  00000+0 -89226-3 0  2583
2 54803  53.1584 266.7540 0001185  90.2632 308.5724 15.34409558    19

Traccia STARLINK-5430 in tempo reale con AllMySat

Download on the App Store